カタログに戻る

STARLINK-32802

運用中通信VLEO
NORAD 62738·PAYLOAD·🇺🇸 United States

打ち上げ Jan 21, 2025 から Cape Canaveral Space Force Station

Loading…

次のパス (今後24時間)

TLE

最新Source: CelesTrak SupGP

元期: Sep 14, 2026, 20:45 UTC

1 62738C 25014D   26257.86506944 -.00031137  00000+0 -11278-2 0  2576
2 62738  43.0029 165.6830 0001331 269.4603  77.8763 15.27593874    13

AllMySatでSTARLINK-32802をリアルタイム追跡

Download on the App Store